Lancaster, PA

10:37 AM EST on February 21, 2018 (GMT -0500)
Lancaster

Weather History for KLNS - July, 2014

Change the Weather History Date:

Thursday, July 17, 2014

  Actual Average Record
Temperature  
Mean Temperature 67 °F -  
Max Temperature 77 °F 88 °F 98 °F (1977)
Min Temperature 57 °F 65 °F 54 °F (1987)
Cooling Degree Days 2    
Growing Degree Days 17 (Base 50)    
Moisture  
Dew Point 54 °F    
Average Humidity 63    
Maximum Humidity 87    
Minimum Humidity 41    
Precipitation  
Precipitation 0.00 in - - ()
Sea Level Pressure  
Sea Level Pressure 30.03 in    
Wind  
Wind Speed 6 mph (WNW)    
Max Wind Speed 14 mph    
Max Gust Speed 21 mph    
Visibility 10 miles    
Events      
Averages and records for this station are not official NWS values.
T = Trace of Precipitation, MM = Missing Value Source: NWS Daily Summary

Daily Weather History Graph

Daily Weather History Graph

Search for Another Location

Airport or City:

Trip Planner

Search our weather history database for the weather conditions in past years. The results will help you decide how hot, cold, wet, or windy it might be!

Date:

Astronomy

Jul. 17, 2014 Rise Set
Actual Time 5:50 AM EDT 8:32 PM EDT
Civil Twilight 5:18 AM EDT 9:03 PM EDT
Nautical Twilight 4:38 AM EDT 9:43 PM EDT
Astronomical Twilight 3:53 AM EDT 10:28 PM EDT
Moon 11:50 PM EDT (7/17) 11:59 AM EDT (7/17)
Length of Visible Light 15h 45m
Length of Day
14h 41m
Waning Gibbous, 66% of the Moon is Illuminated
Jul 17
Waning Gibbous
Jul 18
Last Quarter
Jul 26
New
Aug 3
First Quarter
Aug 10
Full

Hourly Weather History & Observations

Time (EDT) Temp. Dew Point Humidity Pressure Visibility Wind Dir Wind Speed Gust Speed Precip Events Conditions
12:53 AM 63.0 °F 55.9 °F 78% 29.93 in 10.0 mi NW 5.8 mph - N/A   Clear
1:53 AM 61.0 °F 55.9 °F 83% 29.94 in 10.0 mi WNW 4.6 mph - N/A   Clear
2:53 AM 60.1 °F 55.9 °F 86% 29.94 in 10.0 mi WNW 4.6 mph - N/A   Clear
3:53 AM 60.1 °F 55.0 °F 83% 29.93 in 10.0 mi Calm Calm - N/A   Clear
4:53 AM 57.9 °F 54.0 °F 87% 29.95 in 10.0 mi West 5.8 mph - N/A   Clear
5:53 AM 57.9 °F 54.0 °F 87% 29.97 in 10.0 mi West 5.8 mph - N/A   Clear
6:53 AM 60.1 °F 55.0 °F 83% 29.99 in 10.0 mi West 6.9 mph - N/A   Clear
7:53 AM 64.0 °F 57.0 °F 78% 30.01 in 10.0 mi WNW 8.1 mph - N/A   Clear
8:53 AM 69.1 °F 55.9 °F 63% 30.03 in 10.0 mi NW 9.2 mph - N/A   Clear
9:53 AM 71.1 °F 54.0 °F 55% 30.03 in 10.0 mi NW 8.1 mph - N/A   Clear
10:53 AM 72.0 °F 54.0 °F 53% 30.04 in 10.0 mi WNW 11.5 mph - N/A   Clear
11:53 AM 73.0 °F 54.0 °F 51% 30.04 in 10.0 mi NNW 10.4 mph - N/A   Clear
12:53 PM 73.9 °F 55.0 °F 52% 30.04 in 10.0 mi West 6.9 mph - N/A   Clear
1:53 PM 73.9 °F 54.0 °F 50% 30.03 in 10.0 mi West 5.8 mph 20.7 mph N/A   Scattered Clouds
2:53 PM 75.9 °F 53.1 °F 45% 30.04 in 10.0 mi West 13.8 mph 18.4 mph N/A   Partly Cloudy
3:53 PM 77.0 °F 55.0 °F 47% 30.04 in 10.0 mi NNW 10.4 mph - N/A   Partly Cloudy
4:53 PM 75.0 °F 53.1 °F 46% 30.04 in 10.0 mi NNW 6.9 mph - N/A   Scattered Clouds
5:53 PM 75.9 °F 51.1 °F 42% 30.05 in 10.0 mi WNW 10.4 mph - N/A   Scattered Clouds
6:53 PM 75.0 °F 50.0 °F 41% 30.06 in 10.0 mi WNW 6.9 mph - N/A   Scattered Clouds
7:53 PM 73.0 °F 52.0 °F 48% 30.08 in 10.0 mi NNW 4.6 mph - N/A   Clear
8:53 PM 70.0 °F 53.1 °F 55% 30.09 in 10.0 mi NNW 5.8 mph - N/A   Clear
9:53 PM 66.0 °F 53.1 °F 63% 30.11 in 10.0 mi NW 6.9 mph - N/A   Clear
10:53 PM 64.0 °F 54.0 °F 70% 30.13 in 10.0 mi WNW 5.8 mph - N/A   Clear
11:53 PM 63.0 °F 53.1 °F 70% 30.14 in 10.0 mi West 4.6 mph - N/A   Clear